Precipitable_Water
0.49 0.53 0.51 0.55 0.48 0.39 0.36 0.35 0.35 0.32 0.29 0.27 0.25 0.26 0.28 0.25 0.22 0.23 0.27 0.28 0.26 0.29 0.31 0.32 0.31 0.28 0.42 0.46 0.51 0.53 0.56 0.47 0.49 0.57 0.63 0.65 0.69 0.74 0.76 0.81 0.86 0.90 0.96 1.01 1.07 1.11 1.13 1.16 1.17 1.17 1.20 1.26 1.31 1.33 1.37 1.41 1.50 1.55 1.64 1.66 1.64 1.61 1.57 1.50 1.43 1.36 1.29 1.25 1.22 1.18 1.14 1.10 1.07 1.07 1.09 1.11 1.13 1.16 1.18 1.17 1.16 1.16 1.19 1.21 1.19 1.19 1.22
0.47 0.52 0.52 0.53 0.49 0.44 0.38 0.36 0.36 0.34 0.30 0.27 0.26 0.28 0.30 0.28 0.26 0.29 0.33 0.29 0.29 0.31 0.35 0.33 0.33 0.32 0.43 0.49 0.53 0.53 0.60 0.56 0.54 0.67 0.67 0.72 0.74 0.76 0.79 0.84 0.89 0.96 1.01 1.04 1.04 1.07 1.10 1.14 1.17 1.18 1.24 1.29 1.30 1.30 1.33 1.39 1.43 1.52 1.59 1.60 1.61 1.61 1.57 1.55 1.53 1.49 1.40 1.31 1.27 1.26 1.22 1.15 1.10 1.08 1.10 1.12 1.13 1.14 1.15 1.14 1.14 1.16 1.17 1.21 1.23 1.21 1.22
0.46 0.53 0.55 0.55 0.52 0.48 0.43 0.39 0.37 0.34 0.33 0.28 0.28 0.29 0.30 0.31 0.30 0.29 0.38 0.34 0.32 0.34 0.44 0.44 0.44 0.42 0.45 0.45 0.49 0.49 0.61 0.64 0.65 0.72 0.76 0.80 0.77 0.79 0.84 0.89 0.93 0.97 0.99 1.01 1.03 1.03 1.08 1.15 1.22 1.28 1.29 1.33 1.39 1.40 1.42 1.45 1.46 1.52 1.57 1.56 1.58 1.59 1.57 1.59 1.58 1.56 1.49 1.41 1.35 1.29 1.26 1.22 1.17 1.12 1.10 1.13 1.13 1.13 1.14 1.17 1.17 1.17 1.18 1.16 1.21 1.26 1.25
0.40 0.50 0.53 0.53 0.52 0.48 0.46 0.43 0.39 0.36 0.33 0.29 0.27 0.27 0.29 0.30 0.30 0.31 0.43 0.37 0.37 0.41 0.45 0.47 0.49 0.49 0.47 0.47 0.50 0.55 0.61 0.67 0.69 0.72 0.75 0.79 0.85 0.85 0.89 0.92 0.95 0.98 0.99 1.00 1.03 1.08 1.17 1.23 1.30 1.35 1.36 1.40 1.43 1.42 1.47 1.49 1.52 1.57 1.56 1.56 1.55 1.55 1.58 1.61 1.60 1.57 1.54 1.51 1.44 1.36 1.32 1.28 1.23 1.17 1.14 1.12 1.12 1.12 1.12 1.15 1.19 1.21 1.18 1.17 1.19 1.27 1.31
0.38 0.50 0.55 0.55 0.50 0.46 0.41 0.40 0.40 0.39 0.38 0.34 0.30 0.29 0.30 0.31 0.36 0.34 0.39 0.39 0.41 0.44 0.47 0.44 0.48 0.50 0.49 0.49 0.50 0.52 0.53 0.55 0.64 0.72 0.77 0.79 0.86 0.87 0.88 0.92 0.95 1.01 1.03 1.10 1.09 1.11 1.24 1.37 1.41 1.42 1.41 1.41 1.42 1.46 1.49 1.53 1.59 1.57 1.54 1.55 1.57 1.56 1.56 1.58 1.59 1.59 1.58 1.53 1.49 1.46 1.40 1.34 1.32 1.28 1.20 1.15 1.13 1.12 1.11 1.15 1.21 1.21 1.20 1.23 1.24 1.29 1.33
0.40 0.47 0.53 0.54 0.45 0.35 0.36 0.47 0.47 0.44 0.39 0.39 0.28 0.27 0.29 0.31 0.37 0.39 0.43 0.50 0.50 0.50 0.46 0.45 0.46 0.48 0.48 0.49 0.51 0.53 0.50 0.51 0.57 0.64 0.68 0.67 0.70 0.74 0.77 0.78 0.82 0.91 0.97 0.99 1.08 1.23 1.37 1.48 1.54 1.55 1.51 1.46 1.48 1.52 1.55 1.58 1.57 1.57 1.55 1.55 1.55 1.56 1.59 1.59 1.59 1.59 1.58 1.55 1.51 1.49 1.50 1.47 1.42 1.38 1.30 1.20 1.15 1.16 1.17 1.19 1.21 1.23 1.27 1.28 1.31 1.32 1.32
0.40 0.46 0.50 0.46 0.37 0.36 0.48 0.50 0.50 0.49 0.50 0.45 0.38 0.31 0.30 0.32 0.37 0.43 0.43 0.54 0.55 0.58 0.57 0.53 0.52 0.53 0.53 0.53 0.53 0.52 0.51 0.53 0.58 0.61 0.64 0.66 0.70 0.71 0.76 0.78 0.81 0.73 0.71 0.86 0.89 0.92 0.98 1.17 1.35 1.45 1.48 1.47 1.47 1.47 1.49 1.52 1.54 1.54 1.55 1.53 1.51 1.53 1.55 1.58 1.62 1.62 1.59 1.56 1.54 1.53 1.53 1.54 1.53 1.48 1.42 1.32 1.26 1.25 1.23 1.21 1.20 1.21 1.25 1.28 1.30 1.31 1.33
0.43 0.44 0.45 0.37 0.36 0.49 0.50 0.51 0.53 0.54 0.52 0.49 0.42 0.39 0.54 0.63 0.68 0.56 0.43 0.48 0.58 0.57 0.58 0.59 0.57 0.55 0.56 0.61 0.72 0.73 0.80 0.87 0.77 0.73 0.80 0.87 0.85 0.97 1.03 1.05 1.05 1.01 0.91 1.08 1.04 0.98 1.01 0.97 1.03 1.00 1.11 1.24 1.30 1.34 1.41 1.42 1.47 1.48 1.49 1.48 1.48 1.49 1.49 1.52 1.54 1.59 1.61 1.60 1.57 1.56 1.55 1.55 1.54 1.54 1.53 1.46 1.34 1.32 1.30 1.29 1.29 1.28 1.28 1.28 1.27 1.29 1.33
0.37 0.40 0.44 0.43 0.51 0.47 0.48 0.51 0.56 0.61 0.54 0.48 0.43 0.43 0.59 0.69 0.66 0.65 0.58 0.53 0.52 0.60 0.61 0.60 0.59 0.58 0.64 0.71 0.77 0.85 0.88 0.89 0.96 1.04 1.06 1.06 1.04 1.07 1.11 1.14 1.17 1.23 1.29 1.29 1.21 1.09 1.04 0.99 0.96 1.07 1.17 1.11 1.04 1.11 1.22 1.28 1.32 1.39 1.42 1.40 1.40 1.44 1.46 1.48 1.51 1.57 1.60 1.60 1.62 1.61 1.58 1.57 1.54 1.53 1.54 1.54 1.48 1.42 1.33 1.30 1.28 1.27 1.24 1.24 1.27 1.29 1.33
0.44 0.39 0.40 0.44 0.43 0.37 0.47 0.61 0.66 0.69 0.69 0.60 0.57 0.58 0.58 0.71 0.71 0.76 0.75 0.59 0.59 0.59 0.64 0.62 0.60 0.62 0.66 0.64 0.72 0.90 0.94 0.99 1.04 1.12 1.11 1.16 1.20 1.16 1.13 1.10 1.16 1.24 1.24 1.13 1.13 1.14 1.05 0.96 1.04 1.05 1.15 1.18 1.14 1.06 0.97 0.99 1.11 1.21 1.26 1.29 1.36 1.41 1.45 1.47 1.51 1.56 1.59 1.60 1.59 1.62 1.63 1.56 1.55 1.59 1.61 1.62 1.57 1.53 1.37 1.29 1.27 1.28 1.30 1.31 1.32 1.34 1.35
0.41 0.41 0.39 0.40 0.39 0.46 0.60 0.63 0.67 0.71 0.69 0.69 0.61 0.55 0.55 0.81 0.88 0.95 0.93 0.90 0.76 0.65 0.61 0.61 0.63 0.69 0.67 0.74 0.84 1.01 1.07 1.02 1.01 1.02 1.07 1.13 1.15 1.15 1.15 1.09 1.06 1.12 1.15 1.08 1.06 1.11 1.08 0.96 0.98 1.10 1.11 1.08 1.08 1.07 1.08 1.07 0.98 0.92 1.04 1.13 1.24 1.32 1.42 1.49 1.52 1.55 1.58 1.59 1.59 1.61 1.61 1.62 1.64 1.63 1.64 1.64 1.66 1.67 1.57 1.47 1.39 1.39 1.42 1.38 1.39 1.42 1.45
0.40 0.41 0.40 0.41 0.53 0.50 0.63 0.71 0.75 0.73 0.70 0.64 0.55 0.42 0.55 0.87 0.97 1.01 0.98 0.91 0.92 0.88 0.80 0.73 0.77 0.77 0.68 0.80 0.93 1.08 1.14 1.16 1.12 1.06 1.04 1.05 1.09 1.17 1.19 1.14 1.07 1.10 1.15 1.08 1.02 1.08 1.08 1.15 1.09 1.12 1.18 1.14 1.08 1.06 1.07 1.08 1.06 1.00 0.94 0.96 1.12 1.24 1.35 1.45 1.49 1.52 1.55 1.57 1.59 1.59 1.62 1.67 1.70 1.70 1.73 1.73 1.72 1.71 1.69 1.65 1.57 1.53 1.51 1.50 1.47 1.49 1.54
0.39 0.41 0.42 0.45 0.53 0.66 0.73 0.75 0.79 0.75 0.70 0.62 0.48 0.45 0.78 1.01 1.07 1.08 1.02 0.99 1.01 0.99 0.92 0.88 0.84 1.05 1.09 1.11 1.15 1.18 1.22 1.17 1.12 1.11 1.08 1.05 1.04 1.10 1.16 1.18 1.16 1.04 1.07 1.11 1.16 1.11 1.11 1.12 1.15 1.06 1.07 1.12 1.08 1.08 1.08 1.04 1.00 1.01 1.05 1.09 1.10 1.12 1.20 1.32 1.41 1.46 1.52 1.54 1.56 1.62 1.67 1.69 1.74 1.75 1.75 1.72 1.73 1.72 1.70 1.70 1.67 1.62 1.59 1.58 1.56 1.57 1.62
0.39 0.42 0.41 0.44 0.56 0.68 0.78 0.84 0.84 0.81 0.62 0.51 0.59 0.86 1.12 1.10 1.11 1.11 1.07 1.01 1.03 1.03 1.00 1.03 1.05 1.12 1.16 1.16 1.21 1.18 1.17 1.14 1.11 1.09 1.09 1.07 1.07 1.15 1.21 1.22 1.18 1.10 1.07 1.11 1.08 1.02 1.01 1.04 1.06 1.06 1.03 1.00 1.09 1.10 1.04 1.00 1.07 1.10 1.10 1.07 1.09 1.12 1.13 1.19 1.28 1.38 1.45 1.52 1.57 1.61 1.69 1.73 1.71 1.72 1.77 1.78 1.75 1.73 1.72 1.70 1.65 1.62 1.62 1.61 1.59 1.59 1.64
0.41 0.40 0.40 0.39 0.38 0.65 0.79 0.79 0.80 0.85 0.65 0.81 1.01 1.09 1.11 1.12 1.11 1.08 1.08 1.06 1.08 1.08 1.00 1.03 1.06 1.10 1.12 1.11 1.13 1.15 1.15 1.11 1.08 1.09 1.10 1.08 1.08 1.10 1.10 1.09 1.15 1.13 1.08 1.05 1.00 0.93 0.98 1.01 1.02 1.03 1.06 1.00 0.98 1.07 1.05 1.07 1.12 1.11 1.13 1.09 1.06 1.07 1.11 1.16 1.22 1.29 1.37 1.44 1.51 1.59 1.64 1.71 1.72 1.72 1.77 1.76 1.75 1.75 1.71 1.68 1.64 1.61 1.61 1.60 1.57 1.56 1.60
0.38 0.39 0.39 0.43 0.62 0.71 0.83 0.79 0.69 0.88 0.96 1.10 1.11 1.11 1.03 1.10 1.10 1.09 1.09 1.11 1.12 1.12 1.09 1.01 1.00 1.03 1.04 1.04 1.06 1.08 1.09 1.09 1.08 1.07 1.06 1.06 1.06 1.10 1.13 1.11 1.08 1.09 1.08 1.08 1.02 0.99 1.01 1.05 1.03 1.03 1.02 0.99 1.04 1.00 1.00 1.15 1.17 1.14 1.11 1.14 1.09 1.07 1.07 1.11 1.17 1.23 1.30 1.39 1.46 1.53 1.58 1.66 1.71 1.72 1.74 1.76 1.76 1.75 1.73 1.68 1.63 1.59 1.59 1.60 1.58 1.54 1.53
0.46 0.48 0.56 0.66 0.74 0.76 0.82 0.86 0.83 0.86 1.05 1.09 1.11 1.10 1.09 1.05 1.07 1.14 1.09 1.10 1.16 1.16 1.13 1.07 1.00 0.96 1.02 1.02 1.03 1.02 1.03 1.02 1.02 1.01 1.01 1.04 1.02 1.04 1.06 1.08 1.10 1.09 1.06 1.07 1.02 1.00 1.04 1.08 1.09 1.08 1.11 1.06 1.07 1.02 1.07 1.16 1.14 1.13 1.12 1.15 1.13 1.08 1.08 1.12 1.16 1.22 1.29 1.35 1.42 1.50 1.57 1.63 1.63 1.67 1.71 1.75 1.70 1.74 1.73 1.69 1.64 1.59 1.59 1.60 1.55 1.53 1.52
0.58 0.60 0.65 0.70 0.71 0.72 0.75 0.85 0.88 0.84 0.91 1.00 1.03 1.06 1.06 1.09 1.09 1.09 1.06 1.12 1.16 1.18 1.17 1.05 1.00 0.97 1.00 0.98 0.97 0.97 0.99 0.99 0.99 0.99 0.99 1.00 1.03 1.04 1.06 1.07 1.08 1.10 1.14 1.11 1.06 0.99 1.02 1.07 1.09 1.17 1.17 1.16 1.08 1.11 1.21 1.20 1.16 1.16 1.15 1.13 1.13 1.12 1.13 1.16 1.21 1.25 1.27 1.33 1.40 1.49 1.56 1.63 1.66 1.68 1.68 1.72 1.70 1.71 1.70 1.67 1.66 1.62 1.61 1.62 1.59 1.57 1.54
0.48 0.43 0.62 0.62 0.63 0.69 0.74 0.76 0.80 0.88 0.94 0.90 0.95 0.99 1.05 1.06 1.08 1.05 1.05 1.06 1.10 1.12 1.14 1.06 1.00 0.96 0.99 0.96 0.95 0.95 0.95 0.93 0.93 0.92 0.89 0.91 0.97 1.00 0.99 1.04 1.07 1.08 1.07 1.06 1.04 1.02 0.99 1.04 1.11 1.17 1.17 1.20 1.21 1.24 1.25 1.28 1.26 1.21 1.18 1.16 1.13 1.14 1.15 1.20 1.28 1.31 1.29 1.33 1.40 1.48 1.56 1.62 1.68 1.72 1.75 1.74 1.73 1.72 1.71 1.68 1.67 1.66 1.66 1.65 1.63 1.61 1.59
0.48 0.49 0.58 0.59 0.62 0.64 0.68 0.71 0.73 0.82 0.89 0.91 0.91 0.95 1.00 1.05 1.07 1.03 1.01 1.01 1.00 1.04 1.02 1.02 0.97 0.97 0.97 0.93 0.90 0.90 0.89 0.89 0.90 0.88 0.90 0.93 0.97 1.03 1.06 1.07 1.07 1.08 1.09 1.07 1.04 1.03 1.01 1.08 1.13 1.16 1.16 1.18 1.22 1.26 1.29 1.32 1.32 1.27 1.23 1.21 1.20 1.18 1.18 1.22 1.28 1.33 1.35 1.39 1.41 1.46 1.55 1.61 1.62 1.65 1.70 1.72 1.70 1.69 1.68 1.67 1.64 1.64 1.64 1.63 1.62 1.63 1.62
0.50 0.54 0.57 0.60 0.60 0.62 0.62 0.66 0.72 0.77 0.83 0.87 0.89 0.90 0.93 0.96 0.98 0.95 0.96 0.98 0.97 0.97 0.96 1.01 0.99 0.93 0.93 0.95 0.93 0.89 0.92 0.94 0.94 0.92 0.93 0.96 0.98 1.02 1.05 1.06 1.08 1.08 1.09 1.09 1.10 1.09 1.09 1.14 1.16 1.16 1.15 1.17 1.21 1.24 1.28 1.33 1.35 1.28 1.25 1.27 1.31 1.31 1.31 1.28 1.30 1.36 1.39 1.43 1.47 1.51 1.55 1.58 1.62 1.65 1.70 1.75 1.73 1.75 1.81 1.88 1.86 1.77 1.73 1.74 1.76 1.77 1.75
0.40 0.44 0.53 0.59 0.51 0.51 0.60 0.68 0.70 0.72 0.75 0.81 0.85 0.87 0.88 0.88 0.92 0.92 0.88 0.89 0.93 0.96 0.94 0.96 0.97 0.94 0.94 0.98 0.96 0.92 0.93 0.97 0.97 0.97 0.97 1.00 1.02 1.06 1.11 1.12 1.13 1.14 1.16 1.15 1.14 1.15 1.17 1.19 1.17 1.16 1.15 1.16 1.19 1.25 1.30 1.34 1.35 1.29 1.26 1.31 1.32 1.33 1.36 1.36 1.35 1.36 1.41 1.47 1.54 1.52 1.51 1.52 1.52 1.57 1.71 1.77 1.77 1.73 1.72 1.84 1.93 1.96 1.94 1.83 1.81 1.80 1.73
0.40 0.49 0.55 0.61 0.61 0.61 0.65 0.67 0.68 0.71 0.74 0.76 0.77 0.80 0.81 0.84 0.85 0.89 0.87 0.83 0.84 0.84 0.87 0.88 0.92 0.95 0.97 0.98 0.99 0.95 0.94 0.95 1.02 1.04 1.03 1.03 1.06 1.08 1.11 1.09 1.11 1.12 1.14 1.17 1.18 1.17 1.21 1.23 1.23 1.22 1.19 1.19 1.22 1.27 1.31 1.36 1.39 1.37 1.36 1.31 1.33 1.33 1.37 1.37 1.43 1.41 1.41 1.42 1.51 1.49 1.51 1.50 1.50 1.48 1.50 1.59 1.67 1.70 1.73 1.80 1.85 1.87 1.89 1.88 1.88 1.88 1.83
0.49 0.54 0.55 0.58 0.58 0.59 0.64 0.66 0.65 0.67 0.71 0.70 0.71 0.76 0.78 0.81 0.81 0.83 0.85 0.88 0.81 0.76 0.77 0.80 0.87 0.95 0.97 1.01 1.00 0.95 0.98 1.01 1.05 1.04 1.07 1.10 1.12 1.13 1.16 1.13 1.11 1.12 1.13 1.16 1.16 1.18 1.23 1.25 1.25 1.24 1.21 1.21 1.24 1.29 1.33 1.40 1.45 1.46 1.45 1.38 1.33 1.35 1.38 1.43 1.49 1.50 1.51 1.52 1.52 1.48 1.51 1.53 1.53 1.50 1.47 1.46 1.51 1.62 1.65 1.70 1.77 1.80 1.82 1.80 1.80 1.80 1.79
0.46 0.53 0.56 0.58 0.57 0.59 0.64 0.66 0.66 0.67 0.71 0.71 0.68 0.69 0.71 0.74 0.78 0.83 0.83 0.89 0.93 0.87 0.80 0.79 0.83 0.94 0.96 0.96 0.99 0.99 0.98 1.03 1.09 1.11 1.11 1.13 1.14 1.14 1.16 1.16 1.16 1.15 1.17 1.20 1.22 1.24 1.26 1.26 1.27 1.25 1.23 1.22 1.26 1.31 1.38 1.42 1.47 1.48 1.49 1.48 1.44 1.44 1.44 1.47 1.51 1.54 1.55 1.54 1.52 1.51 1.52 1.52 1.53 1.54 1.52 1.50 1.45 1.45 1.55 1.62 1.63 1.66 1.72 1.75 1.76 1.75 1.75
0.53 0.52 0.54 0.55 0.56 0.56 0.59 0.60 0.59 0.62 0.64 0.67 0.68 0.68 0.71 0.73 0.75 0.77 0.80 0.84 0.89 0.93 0.89 0.87 0.87 0.95 0.98 0.97 1.00 1.02 1.03 1.07 1.16 1.17 1.16 1.15 1.17 1.17 1.18 1.17 1.20 1.23 1.23 1.25 1.27 1.28 1.28 1.27 1.25 1.24 1.22 1.23 1.26 1.37 1.42 1.46 1.51 1.53 1.56 1.57 1.56 1.56 1.54 1.53 1.54 1.56 1.58 1.57 1.54 1.53 1.55 1.57 1.57 1.57 1.55 1.53 1.51 1.47 1.43 1.43 1.48 1.54 1.57 1.57 1.58 1.60 1.60
0.51 0.53 0.51 0.46 0.43 0.45 0.51 0.49 0.48 0.57 0.61 0.64 0.64 0.66 0.68 0.69 0.72 0.72 0.74 0.77 0.82 0.85 0.85 0.85 0.89 0.97 1.00 1.02 1.04 1.06 1.03 1.10 1.14 1.18 1.18 1.18 1.18 1.20 1.22 1.25 1.25 1.26 1.27 1.27 1.28 1.31 1.32 1.28 1.24 1.22 1.22 1.26 1.35 1.43 1.43 1.44 1.47 1.49 1.53 1.56 1.56 1.55 1.57 1.60 1.58 1.57 1.58 1.58 1.56 1.54 1.55 1.56 1.58 1.58 1.55 1.55 1.54 1.51 1.46 1.40 1.37 1.36 1.37 1.42 1.45 1.42 1.38
0.50 0.50 0.51 0.41 0.36 0.38 0.44 0.51 0.53 0.55 0.58 0.60 0.62 0.64 0.67 0.68 0.68 0.68 0.68 0.70 0.72 0.77 0.80 0.80 0.84 0.90 0.95 1.02 1.01 1.03 1.09 1.09 1.09 1.14 1.18 1.20 1.25 1.26 1.29 1.31 1.31 1.32 1.32 1.30 1.30 1.33 1.34 1.31 1.25 1.23 1.24 1.31 1.40 1.45 1.47 1.46 1.44 1.44 1.45 1.46 1.50 1.54 1.56 1.58 1.57 1.55 1.56 1.60 1.64 1.61 1.55 1.54 1.56 1.55 1.53 1.49 1.46 1.44 1.42 1.39 1.35 1.31 1.30 1.29 1.30 1.31 1.28
0.49 0.49 0.50 0.48 0.45 0.47 0.51 0.53 0.52 0.51 0.51 0.54 0.57 0.59 0.60 0.60 0.61 0.63 0.64 0.66 0.70 0.73 0.74 0.74 0.76 0.92 1.00 1.02 1.05 1.06 1.08 1.10 1.12 1.16 1.19 1.26 1.29 1.34 1.36 1.35 1.36 1.36 1.34 1.32 1.32 1.34 1.35 1.33 1.31 1.25 1.26 1.36 1.40 1.44 1.47 1.45 1.41 1.42 1.41 1.42 1.45 1.48 1.52 1.55 1.56 1.55 1.55 1.56 1.55 1.55 1.54 1.52 1.48 1.46 1.47 1.47 1.46 1.43 1.40 1.37 1.29 1.23 1.16 1.11 1.04 0.99 1.00
0.54 0.54 0.51 0.48 0.48 0.50 0.49 0.46 0.46 0.46 0.47 0.48 0.48 0.49 0.52 0.54 0.54 0.55 0.59 0.62 0.65 0.66 0.72 0.76 0.74 0.82 0.92 0.96 1.06 1.12 1.13 1.16 1.19 1.23 1.25 1.26 1.31 1.35 1.37 1.39 1.37 1.34 1.31 1.29 1.29 1.33 1.34 1.33 1.31 1.26 1.27 1.37 1.43 1.46 1.43 1.40 1.38 1.37 1.35 1.36 1.39 1.42 1.46 1.50 1.53 1.53 1.51 1.48 1.48 1.47 1.45 1.42 1.40 1.36 1.33 1.32 1.32 1.30 1.26 1.21 1.13 1.02 0.93 0.91 0.88 0.84 0.83
0.67 0.63 0.57 0.53 0.51 0.50 0.48 0.46 0.47 0.48 0.49 0.48 0.47 0.48 0.48 0.48 0.49 0.50 0.53 0.57 0.60 0.62 0.65 0.66 0.71 0.83 0.88 0.95 1.05 1.13 1.19 1.22 1.23 1.26 1.28 1.30 1.30 1.32 1.35 1.36 1.29 1.25 1.25 1.27 1.30 1.30 1.30 1.30 1.28 1.28 1.35 1.38 1.42 1.44 1.46 1.45 1.40 1.39 1.37 1.34 1.30 1.29 1.34 1.40 1.41 1.43 1.45 1.45 1.44 1.40 1.39 1.38 1.37 1.33 1.31 1.31 1.27 1.21 1.15 1.09 1.03 0.99 0.97 0.92 0.89 0.85 0.85
0.75 0.71 0.66 0.60 0.56 0.53 0.51 0.51 0.50 0.49 0.49 0.50 0.48 0.47 0.48 0.47 0.45 0.46 0.48 0.50 0.53 0.55 0.57 0.59 0.71 0.80 0.85 0.94 1.04 1.10 1.13 1.16 1.20 1.23 1.24 1.24 1.26 1.29 1.33 1.34 1.34 1.34 1.33 1.32 1.33 1.32 1.28 1.23 1.22 1.30 1.39 1.44 1.43 1.42 1.45 1.47 1.44 1.40 1.37 1.37 1.34 1.30 1.28 1.30 1.32 1.34 1.36 1.37 1.37 1.37 1.36 1.32 1.29 1.29 1.27 1.23 1.16 1.11 1.08 1.06 1.04 1.06 1.07 0.99 0.93 0.91 0.93
0.78 0.70 0.65 0.63 0.61 0.58 0.55 0.55 0.54 0.53 0.53 0.51 0.49 0.50 0.52 0.53 0.52 0.51 0.51 0.52 0.52 0.52 0.51 0.55 0.73 0.80 0.84 0.91 0.98 1.04 1.08 1.13 1.15 1.16 1.19 1.16 1.16 1.20 1.27 1.32 1.34 1.37 1.36 1.39 1.38 1.36 1.32 1.28 1.29 1.37 1.41 1.44 1.45 1.45 1.42 1.40 1.36 1.39 1.43 1.41 1.37 1.36 1.34 1.32 1.32 1.32 1.31 1.30 1.28 1.26 1.26 1.27 1.27 1.24 1.17 1.15 1.14 1.12 1.12 1.11 1.09 1.10 1.08 1.05 1.04 1.07 1.08
0.84 0.83 0.81 0.77 0.70 0.64 0.61 0.62 0.65 0.63 0.61 0.59 0.56 0.55 0.55 0.57 0.57 0.57 0.56 0.56 0.55 0.53 0.51 0.60 0.73 0.79 0.82 0.86 0.92 0.99 1.03 1.04 1.02 1.05 1.08 1.09 1.08 1.11 1.20 1.26 1.31 1.33 1.36 1.39 1.39 1.38 1.39 1.40 1.38 1.38 1.41 1.43 1.43 1.44 1.44 1.42 1.38 1.36 1.37 1.36 1.34 1.34 1.32 1.31 1.31 1.31 1.29 1.26 1.25 1.25 1.24 1.21 1.19 1.19 1.20 1.21 1.21 1.19 1.15 1.13 1.13 1.11 1.09 1.11 1.13 1.15 1.16
0.96 0.96 0.99 0.96 0.94 0.91 0.87 0.82 0.76 0.70 0.66 0.61 0.60 0.60 0.62 0.63 0.63 0.62 0.62 0.61 0.57 0.56 0.61 0.70 0.78 0.81 0.84 0.87 0.90 0.97 0.99 0.99 1.04 1.04 1.04 1.07 1.07 1.08 1.13 1.19 1.26 1.28 1.31 1.35 1.39 1.40 1.43 1.43 1.43 1.40 1.42 1.43 1.45 1.48 1.47 1.44 1.41 1.38 1.36 1.35 1.34 1.34 1.32 1.30 1.28 1.27 1.28 1.29 1.28 1.26 1.24 1.23 1.23 1.23 1.21 1.20 1.20 1.21 1.19 1.20 1.19 1.19 1.21 1.22 1.21 1.23 1.23
0.89 0.91 0.92 0.92 0.94 0.95 0.93 0.91 0.88 0.83 0.78 0.73 0.70 0.69 0.69 0.68 0.68 0.66 0.64 0.64 0.65 0.63 0.67 0.76 0.84 0.87 0.90 0.89 0.89 0.96 1.00 1.02 1.07 1.10 1.11 1.15 1.19 1.21 1.19 1.17 1.17 1.22 1.25 1.28 1.36 1.41 1.43 1.43 1.42 1.42 1.41 1.41 1.43 1.46 1.47 1.44 1.42 1.40 1.38 1.37 1.34 1.33 1.32 1.32 1.30 1.29 1.27 1.26 1.26 1.27 1.27 1.26 1.26 1.25 1.24 1.23 1.23 1.22 1.22 1.22 1.23 1.24 1.24 1.27 1.29 1.30 1.30
0.89 0.88 0.87 0.90 0.92 0.94 0.94 0.95 0.95 0.93 0.91 0.87 0.83 0.79 0.77 0.76 0.75 0.74 0.73 0.72 0.70 0.70 0.74 0.81 0.89 0.90 0.90 0.93 0.97 1.00 1.07 1.16 1.15 1.13 1.13 1.16 1.19 1.20 1.20 1.19 1.20 1.20 1.21 1.20 1.30 1.40 1.41 1.41 1.42 1.40 1.38 1.37 1.36 1.39 1.41 1.45 1.42 1.38 1.36 1.34 1.31 1.30 1.30 1.29 1.29 1.28 1.27 1.28 1.27 1.26 1.26 1.25 1.23 1.23 1.25 1.25 1.24 1.24 1.24 1.23 1.24 1.25 1.26 1.27 1.28 1.28 1.27
0.85 0.87 0.86 0.86 0.85 0.84 0.86 0.91 0.96 0.96 0.95 0.92 0.91 0.90 0.88 0.86 0.83 0.81 0.81 0.78 0.75 0.78 0.86 0.89 0.91 0.96 0.97 0.98 0.98 1.00 1.06 1.13 1.15 1.18 1.22 1.17 1.16 1.15 1.14 1.14 1.15 1.21 1.23 1.27 1.35 1.39 1.40 1.42 1.41 1.40 1.37 1.37 1.37 1.37 1.37 1.38 1.38 1.36 1.33 1.32 1.31 1.29 1.28 1.27 1.27 1.27 1.28 1.28 1.29 1.28 1.26 1.25 1.24 1.23 1.24 1.25 1.25 1.25 1.25 1.25 1.26 1.27 1.27 1.28 1.27 1.25 1.24
0.82 0.85 0.85 0.85 0.87 0.86 0.88 0.89 0.90 0.90 0.91 0.88 0.89 0.91 0.91 0.89 0.90 0.87 0.83 0.79 0.86 0.94 0.94 0.90 0.95 1.03 1.04 0.98 0.92 0.98 1.05 1.10 1.14 1.17 1.16 1.16 1.14 1.13 1.08 1.08 1.12 1.15 1.18 1.29 1.37 1.40 1.42 1.38 1.40 1.39 1.35 1.34 1.35 1.37 1.39 1.41 1.38 1.33 1.31 1.29 1.28 1.27 1.26 1.25 1.23 1.23 1.25 1.25 1.24 1.24 1.24 1.23 1.24 1.23 1.23 1.24 1.25 1.27 1.28 1.27 1.26 1.25 1.23 1.22 1.21 1.20 1.21
0.80 0.81 0.83 0.84 0.81 0.84 0.88 0.87 0.88 0.89 0.89 0.89 0.88 0.88 0.92 0.88 0.91 0.88 0.81 0.83 0.96 1.06 1.01 0.95 0.94 1.00 1.02 1.00 0.95 1.00 1.07 1.12 1.12 1.12 1.11 1.07 1.07 1.08 1.06 1.06 1.10 1.16 1.20 1.22 1.25 1.27 1.29 1.31 1.32 1.32 1.33 1.31 1.30 1.31 1.34 1.35 1.36 1.35 1.33 1.30 1.26 1.24 1.23 1.22 1.21 1.19 1.20 1.21 1.22 1.22 1.21 1.19 1.18 1.17 1.18 1.20 1.20 1.19 1.17 1.15 1.14 1.14 1.14 1.14 1.14 1.16 1.18
0.79 0.79 0.81 0.82 0.82 0.83 0.81 0.83 0.86 0.89 0.92 0.92 0.91 0.92 0.94 0.93 0.90 0.88 0.83 0.85 0.90 0.97 0.96 0.96 0.94 0.98 0.96 0.96 0.96 0.98 1.05 1.08 1.09 1.09 1.08 1.06 1.03 1.01 0.98 0.96 1.05 1.11 1.14 1.17 1.17 1.17 1.18 1.19 1.20 1.19 1.21 1.22 1.22 1.22 1.20 1.21 1.23 1.22 1.20 1.17 1.14 1.12 1.11 1.10 1.09 1.08 1.08 1.08 1.08 1.08 1.07 1.08 1.08 1.08 1.08 1.07 1.07 1.07 1.07 1.07 1.07 1.07 1.08 1.08 1.10 1.12 1.12
0.79 0.80 0.79 0.80 0.81 0.82 0.82 0.83 0.83 0.81 0.83 0.86 0.87 0.91 0.90 0.92 0.88 0.77 0.82 0.99 0.97 0.95 0.95 0.94 0.94 0.94 0.95 0.96 0.95 0.95 0.97 1.00 1.02 1.04 1.04 1.02 0.98 0.96 0.94 0.96 1.03 1.04 1.05 1.06 1.08 1.09 1.09 1.09 1.10 1.11 1.11 1.11 1.11 1.12 1.12 1.10 1.11 1.11 1.11 1.11 1.10 1.08 1.07 1.05 1.04 1.03 1.03 1.03 1.03 1.03 1.04 1.05 1.04 1.05 1.06 1.05 1.04 1.04 1.03 1.03 1.03 1.02 1.02 1.02 1.02 1.02 1.03
0.79 0.78 0.78 0.79 0.79 0.81 0.82 0.82 0.81 0.81 0.80 0.80 0.84 0.89 0.86 0.86 0.87 0.85 0.85 0.90 0.95 0.95 0.93 0.97 1.02 1.02 1.00 0.96 0.94 0.94 0.95 0.97 0.97 0.97 0.97 0.99 1.00 1.00 0.96 0.96 0.98 0.99 0.99 0.98 0.98 0.99 1.00 1.01 1.02 1.03 1.03 1.02 1.01 1.03 1.05 1.06 1.06 1.06 1.06 1.06 1.06 1.05 1.03 1.01 1.00 1.00 0.99 0.98 0.97 0.98 0.98 0.99 0.99 0.98 0.98 0.98 0.99 1.01 1.01 1.01 1.00 0.99 0.99 0.99 0.99 1.00 1.01
0.78 0.78 0.78 0.78 0.78 0.80 0.81 0.81 0.82 0.82 0.80 0.82 0.82 0.85 0.88 0.87 0.80 0.80 0.82 0.85 0.89 0.91 0.92 0.94 0.95 0.95 0.94 0.94 0.94 0.95 0.96 0.96 0.94 0.93 0.92 0.92 0.93 0.98 1.01 0.99 0.99 0.99 0.99 0.98 0.97 0.95 0.95 0.96 0.97 0.98 0.98 0.98 0.97 0.98 0.98 0.98 0.99 0.99 1.00 1.00 0.99 0.99 0.99 0.98 0.98 0.97 0.96 0.95 0.95 0.94 0.94 0.93 0.93 0.93 0.93 0.92 0.91 0.92 0.94 0.95 0.97 0.98 0.99 0.99 1.00 1.01 1.02
0.76 0.78 0.77 0.77 0.77 0.78 0.78 0.78 0.78 0.79 0.81 0.84 0.84 0.84 0.85 0.86 0.86 0.82 0.80 0.79 0.81 0.84 0.84 0.84 0.87 0.87 0.88 0.91 0.93 0.94 0.95 0.97 0.98 0.97 0.92 0.88 0.86 0.87 0.92 0.93 0.93 0.92 0.92 0.93 0.93 0.94 0.95 0.96 0.96 0.96 0.96 0.96 0.96 0.96 0.95 0.94 0.94 0.95 0.95 0.95 0.95 0.95 0.95 0.95 0.96 0.96 0.95 0.95 0.94 0.94 0.93 0.93 0.92 0.92 0.92 0.92 0.92 0.90 0.89 0.88 0.88 0.89 0.90 0.92 0.93 0.93 0.93
0.70 0.74 0.78 0.78 0.75 0.76 0.78 0.79 0.79 0.81 0.81 0.81 0.81 0.83 0.84 0.84 0.85 0.86 0.84 0.84 0.83 0.84 0.83 0.85 0.87 0.87 0.88 0.87 0.86 0.86 0.87 0.90 0.91 0.94 0.97 0.96 0.92 0.91 0.93 0.91 0.90 0.88 0.87 0.87 0.89 0.91 0.93 0.94 0.94 0.94 0.94 0.93 0.94 0.94 0.94 0.94 0.95 0.94 0.93 0.92 0.92 0.92 0.92 0.93 0.93 0.93 0.94 0.94 0.94 0.94 0.94 0.94 0.93 0.93 0.92 0.92 0.91 0.91 0.90 0.89 0.87 0.87 0.86 0.86 0.86 0.87 0.88
0.64 0.67 0.71 0.73 0.76 0.79 0.79 0.78 0.79 0.77 0.76 0.75 0.75 0.76 0.80 0.83 0.83 0.82 0.84 0.86 0.87 0.88 0.88 0.88 0.88 0.87 0.88 0.87 0.86 0.85 0.84 0.84 0.86 0.89 0.90 0.92 0.93 0.92 0.91 0.91 0.92 0.91 0.89 0.88 0.88 0.88 0.89 0.88 0.88 0.88 0.88 0.88 0.89 0.90 0.91 0.92 0.92 0.91 0.90 0.89 0.89 0.90 0.90 0.91 0.92 0.92 0.93 0.93 0.93 0.92 0.91 0.90 0.89 0.88 0.88 0.88 0.88 0.87 0.87 0.87 0.86 0.86 0.86 0.86 0.85 0.84 0.83
0.59 0.60 0.62 0.66 0.70 0.76 0.79 0.78 0.76 0.73 0.72 0.71 0.73 0.76 0.78 0.80 0.81 0.81 0.80 0.80 0.81 0.82 0.83 0.85 0.85 0.86 0.87 0.87 0.87 0.87 0.85 0.83 0.78 0.81 0.86 0.87 0.88 0.89 0.88 0.86 0.87 0.88 0.89 0.89 0.88 0.87 0.85 0.83 0.82 0.82 0.83 0.82 0.80 0.80 0.82 0.83 0.84 0.84 0.85 0.85 0.86 0.86 0.86 0.85 0.85 0.85 0.85 0.85 0.84 0.83 0.83 0.83 0.82 0.82 0.82 0.81 0.80 0.81 0.81 0.82 0.82 0.82 0.82 0.81 0.81 0.81 0.81
0.54 0.56 0.59 0.61 0.62 0.68 0.71 0.74 0.74 0.74 0.73 0.75 0.75 0.76 0.78 0.78 0.79 0.80 0.80 0.80 0.78 0.77 0.78 0.79 0.81 0.83 0.84 0.86 0.86 0.85 0.84 0.82 0.78 0.76 0.81 0.82 0.83 0.84 0.84 0.84 0.83 0.85 0.86 0.86 0.85 0.85 0.84 0.82 0.80 0.77 0.76 0.74 0.73 0.72 0.72 0.73 0.74 0.75 0.76 0.77 0.78 0.79 0.79 0.80 0.81 0.81 0.81 0.80 0.79 0.78 0.77 0.77 0.77 0.78 0.78 0.78 0.77 0.77 0.77 0.76 0.75 0.76 0.76 0.76 0.76 0.76 0.77
0.49 0.51 0.52 0.55 0.57 0.59 0.62 0.66 0.67 0.70 0.74 0.76 0.77 0.80 0.80 0.79 0.77 0.77 0.79 0.78 0.78 0.78 0.78 0.78 0.78 0.79 0.79 0.81 0.82 0.83 0.84 0.82 0.78 0.75 0.74 0.76 0.77 0.77 0.76 0.75 0.75 0.76 0.77 0.78 0.79 0.79 0.79 0.79 0.78 0.77 0.74 0.73 0.72 0.71 0.70 0.69 0.69 0.69 0.68 0.68 0.68 0.68 0.69 0.69 0.70 0.70 0.70 0.69 0.70 0.70 0.71 0.72 0.72 0.72 0.71 0.70 0.70 0.71 0.71 0.71 0.70 0.70 0.70 0.70 0.70 0.69 0.68
0.44 0.44 0.45 0.49 0.52 0.57 0.61 0.62 0.65 0.67 0.69 0.70 0.71 0.73 0.73 0.73 0.74 0.77 0.78 0.76 0.76 0.74 0.74 0.75 0.77 0.78 0.77 0.77 0.77 0.78 0.77 0.77 0.77 0.74 0.71 0.71 0.71 0.71 0.70 0.69 0.69 0.68 0.69 0.70 0.71 0.73 0.75 0.75 0.75 0.75 0.74 0.73 0.72 0.70 0.69 0.68 0.67 0.67 0.67 0.66 0.65 0.64 0.64 0.64 0.63 0.62 0.61 0.61 0.61 0.61 0.60 0.61 0.61 0.61 0.61 0.62 0.63 0.62 0.62 0.62 0.60 0.59 0.58 0.58 0.58 0.59 0.59
0.45 0.45 0.45 0.46 0.48 0.50 0.51 0.55 0.59 0.61 0.63 0.65 0.67 0.67 0.67 0.67 0.67 0.67 0.71 0.71 0.69 0.68 0.68 0.68 0.67 0.71 0.74 0.73 0.73 0.73 0.74 0.74 0.73 0.71 0.70 0.69 0.68 0.68 0.68 0.66 0.64 0.64 0.64 0.64 0.64 0.65 0.67 0.68 0.69 0.69 0.68 0.68 0.68 0.68 0.68 0.67 0.65 0.63 0.61 0.61 0.61 0.60 0.60 0.60 0.61 0.60 0.59 0.57 0.55 0.56 0.57 0.57 0.58 0.57 0.57 0.57 0.58 0.59 0.58 0.56 0.55 0.55 0.55 0.53 0.51 0.50 0.49
Wind_Speed
27 27 24 19 22 30 34 32 31 32 35 37 32 26 25 23 20 19 20 20 19 17 15 15 16 14 14 15 13 10 11 15 16 18 21 23 21 21 23 23 24 24 24 23 23 23 23 23 24 24 24 24 24 24 24 24 24 23 23 23 24 24 24 24 24 24 24 24 24 24 25 25 25 24 24 24 23 22 22 21 21 21 20 19 19 18 18
27 25 24 20 18 22 27 31 33 31 32 36 35 28 23 23 22 20 19 20 20 17 15 14 14 15 16 16 13 11 12 14 14 15 19 21 20 21 22 22 23 23 23 22 23 23 23 23 24 24 23 24 24 24 23 23 23 22 22 23 23 23 24 24 24 24 23 23 24 24 25 25 25 25 24 23 23 22 22 22 21 21 20 20 19 18 18
27 25 24 21 19 19 21 25 30 32 31 33 35 31 24 22 22 21 20 19 19 17 15 13 14 16 15 13 12 11 13 14 15 17 19 19 20 21 21 21 21 22 22 22 22 23 24 24 24 24 23 24 24 24 23 23 23 22 22 22 23 23 23 24 24 24 23 23 23 24 25 25 25 25 24 23 23 22 22 22 22 21 20 20 19 18 18
27 27 26 23 20 20 21 22 26 29 28 30 33 32 27 23 22 22 19 18 18 18 18 16 15 15 15 12 12 12 12 12 14 17 19 19 20 21 20 20 19 20 21 22 22 22 23 24 25 24 23 23 24 24 24 23 23 23 23 22 23 23 24 24 24 24 24 23 24 24 24 25 25 25 24 24 23 23 23 22 22 21 21 20 20 19 18
25 27 28 25 20 19 22 23 24 24 22 24 31 33 28 23 23 22 20 19 20 20 19 18 18 16 14 13 13 13 12 10 11 14 16 17 18 18 18 18 18 18 19 19 20 21 22 24 25 25 24 24 24 24 24 24 23 23 23 23 22 23 24 24 24 25 24 24 24 24 24 24 25 25 25 24 24 23 23 23 22 22 21 21 20 19 19
25 25 26 23 20 21 23 21 22 21 17 18 27 33 31 24 21 22 22 20 20 21 20 20 20 18 16 14 13 14 13 12 11 12 13 15 15 15 15 16 16 17 17 17 18 18 20 22 23 24 24 24 24 24 24 24 24 24 24 23 22 22 23 23 24 24 25 25 25 24 24 24 24 25 25 25 25 24 24 23 23 23 22 21 21 20 20
26 25 24 22 21 23 23 20 19 19 14 14 19 27 28 23 19 22 24 21 18 19 21 21 21 20 17 15 13 13 13 13 12 11 11 13 14 14 14 13 13 15 15 15 15 15 17 19 21 22 23 23 23 23 23 24 24 24 23 23 23 22 23 23 23 24 24 24 25 25 25 25 25 25 26 26 26 25 24 24 24 24 23 22 22 21 21
25 25 25 25 22 22 22 20 18 15 14 14 18 21 20 18 16 19 25 25 21 19 19 21 22 21 18 15 13 12 13 13 13 11 11 11 12 12 12 11 12 13 14 14 14 14 15 16 18 20 22 22 22 22 22 23 22 23 23 23 23 23 23 23 23 23 23 23 24 25 26 26 26 26 26 26 26 26 26 25 25 24 24 23 23 23 22
24 23 25 25 22 21 21 18 16 14 12 15 20 20 17 17 16 14 19 25 25 22 20 21 22 21 18 15 14 12 13 13 13 12 11 11 11 11 11 10 10 11 13 13 13 14 15 14 16 18 19 21 22 22 22 22 22 22 22 22 22 22 23 23 24 23 23 22 23 24 25 26 27 27 27 27 27 27 26 26 25 25 25 24 24 24 23
23 23 24 23 22 21 19 17 17 16 13 14 19 19 15 16 17 13 15 20 23 24 24 22 22 21 19 17 16 14 14 14 14 13 12 11 11 11 10 10 9 9 11 11 11 13 14 14 14 15 16 18 21 22 22 22 22 22 21 22 22 22 23 24 24 23 23 23 22 23 24 25 27 27 27 27 27 27 27 26 26 26 25 25 25 24 24
24 24 23 22 23 22 18 18 18 16 15 17 20 18 14 15 16 15 15 17 18 22 24 22 21 22 21 20 19 17 15 14 14 14 13 12 11 11 10 10 9 9 10 11 10 11 12 13 14 15 15 16 18 20 22 22 22 22 22 22 22 22 23 24 24 23 23 23 23 23 24 24 25 26 27 27 27 27 27 26 26 26 25 25 25 24 24
25 26 25 21 22 21 18 19 19 19 19 21 21 19 16 15 16 17 18 18 17 19 21 21 21 22 22 22 21 19 17 15 14 14 14 13 12 11 11 10 10 11 11 11 11 11 11 12 14 15 15 15 16 17 20 21 22 23 23 23 23 23 23 23 24 24 23 23 23 23 23 23 23 24 26 26 27 26 26 26 26 26 25 25 25 24 24
25 25 24 23 23 21 18 18 19 20 22 21 20 20 19 18 17 18 19 20 19 19 22 23 23 22 21 21 20 18 17 16 14 14 14 13 13 12 11 11 11 12 12 11 12 13 12 13 14 15 15 16 16 16 17 19 21 22 23 24 23 23 23 24 24 24 23 23 23 22 23 23 22 23 24 25 26 26 26 26 26 26 26 25 25 25 24
27 26 24 23 24 22 19 18 18 20 23 22 20 21 22 19 18 19 19 20 19 20 22 24 24 22 19 18 17 16 16 15 15 15 14 14 13 13 12 12 12 13 13 12 12 13 13 14 14 15 15 16 16 16 16 17 18 19 20 22 23 23 23 23 24 24 23 23 22 22 22 22 22 22 22 23 24 25 26 26 26 26 26 26 26 25 25
27 27 24 24 24 22 19 18 18 20 23 23 22 23 22 20 19 19 20 20 19 20 21 22 22 21 19 17 15 14 15 15 15 15 15 15 15 14 14 13 13 14 14 14 14 14 14 14 15 16 16 17 17 17 16 16 17 17 18 20 22 23 23 23 23 24 24 23 22 22 22 23 23 22 22 22 23 24 25 25 25 26 26 25 25 25 25
24 25 24 25 26 23 19 19 20 20 22 23 23 23 22 21 20 20 20 20 19 19 21 21 21 20 18 17 15 14 14 15 15 15 15 15 16 15 15 15 15 15 16 15 15 15 14 14 15 15 16 17 17 17 16 16 17 17 17 18 20 22 23 23 23 23 23 23 22 22 22 23 23 23 23 23 23 23 24 24 25 25 25 25 25 25 25
24 25 26 26 26 24 21 21 21 22 22 22 22 22 22 21 21 21 20 20 19 20 20 21 20 20 18 17 16 16 15 16 16 16 16 16 17 17 17 16 16 17 17 16 16 15 15 15 15 15 16 17 17 17 17 17 17 17 17 18 19 20 22 23 23 23 23 23 23 22 23 23 23 24 24 24 24 24 24 25 25 25 25 25 25 25 25
25 26 26 25 25 23 22 22 23 23 24 23 22 23 23 22 22 22 21 21 20 20 21 21 20 19 18 17 17 17 17 17 17 18 19 19 19 19 19 18 18 18 18 18 17 16 16 16 16 16 16 17 17 17 18 18 18 18 18 18 19 20 20 22 23 23 23 23 23 23 23 23 23 24 24 25 25 24 25 25 25 25 25 25 25 25 25
25 26 25 24 24 25 25 24 23 23 25 25 25 25 25 24 23 22 21 21 21 20 20 21 21 20 19 18 18 19 19 19 19 19 20 20 21 20 20 20 20 20 19 19 18 17 17 17 18 18 17 17 17 18 18 18 18 19 18 18 19 19 20 21 22 23 23 23 23 23 23 23 24 24 24 24 25 25 25 25 25 26 26 26 26 26 26
24 25 26 25 25 26 26 25 23 23 23 24 26 27 27 25 25 24 22 22 22 21 21 21 21 20 20 20 20 20 20 20 19 19 20 21 21 21 20 21 21 20 20 19 19 18 18 18 18 18 18 17 17 18 18 19 19 19 19 18 18 18 19 21 22 23 23 22 22 22 23 23 23 23 24 24 25 25 26 26 26 26 26 27 27 27 27
25 26 25 24 25 26 25 23 23 24 24 23 24 27 28 27 27 26 25 24 23 23 22 22 22 22 21 21 21 21 20 20 19 20 20 20 21 21 20 20 20 20 19 19 19 19 19 19 19 19 19 18 18 18 18 18 18 19 19 18 17 18 19 20 21 22 22 22 22 22 22 22 22 23 23 23 24 24 25 26 26 27 27 27 27 27 26
25 25 25 24 26 27 25 23 24 25 25 24 23 24 26 27 27 27 27 26 26 25 25 25 24 24 24 23 23 22 21 21 20 21 21 21 21 21 21 20 20 20 19 19 19 19 19 19 20 20 20 19 19 18 19 19 19 19 20 19 18 18 18 20 21 22 23 23 23 23 22 22 22 22 22 22 22 23 23 24 25 25 26 26 26 26 25
27 27 26 27 30 30 27 26 27 26 26 26 25 24 25 26 27 27 27 27 27 28 28 27 27 26 25 25 24 24 23 22 22 21 21 21 21 21 21 21 21 20 20 19 19 19 19 19 19 20 20 20 20 20 20 20 20 20 20 20 19 18 19 19 21 22 23 23 23 23 23 23 22 22 21 20 20 21 21 21 22 22 23 23 24 24 24
29 29 28 30 33 33 31 30 31 29 28 28 29 28 27 26 27 27 27 26 26 28 28 28 28 27 26 25 24 24 23 23 23 22 22 22 22 22 21 21 21 21 20 20 20 20 19 19 19 19 20 20 21 21 21 20 20 21 21 20 20 19 19 20 20 21 22 22 23 23 22 22 22 21 21 20 19 19 19 19 19 20 21 21 21 22 22
30 31 31 32 35 36 35 34 34 33 31 30 31 31 30 29 28 28 26 25 25 26 26 27 27 26 26 25 25 24 23 23 23 23 23 23 23 22 21 21 21 21 21 21 20 20 20 19 19 19 20 20 21 21 21 21 21 21 21 21 20 20 20 20 20 20 20 21 22 21 21 21 21 21 20 20 20 19 18 18 18 18 19 20 20 20 21
32 33 33 35 37 38 37 37 37 37 36 34 34 33 34 33 32 30 29 28 26 25 25 26 26 26 26 25 25 24 24 24 24 24 23 23 23 23 23 22 22 22 22 21 21 21 20 20 20 20 20 20 21 21 21 21 21 21 21 21 21 20 20 20 20 19 20 20 21 21 20 21 21 21 21 21 21 20 20 19 18 18 19 19 19 20 20
35 35 35 36 38 39 38 38 39 39 39 39 38 36 36 36 35 34 33 32 31 29 28 27 27 27 27 26 25 25 25 25 25 25 25 24 24 24 24 23 23 23 23 22 22 22 21 21 20 20 20 20 20 21 21 21 21 21 21 21 21 20 20 19 19 19 19 19 20 20 20 21 21 21 21 21 20 20 20 19 19 19 19 19 19 20 20
37 37 37 38 39 39 39 40 41 41 41 41 41 40 39 38 37 37 36 35 34 33 32 31 30 29 27 26 26 26 26 26 26 25 25 25 25 25 24 24 24 24 24 23 23 22 22 21 20 20 20 21 21 21 21 21 21 21 21 21 21 20 20 20 19 19 19 18 19 19 20 20 21 20 20 20 20 20 20 19 19 20 19 20 20 20 21
36 37 38 40 40 40 40 41 43 44 44 43 43 42 42 42 41 40 39 38 36 35 34 34 33 31 29 28 27 27 26 26 26 25 25 25 24 24 24 25 24 24 24 23 23 23 23 22 21 20 20 21 22 22 21 21 21 21 21 21 20 20 20 20 20 20 19 19 19 19 19 19 20 20 20 20 20 20 20 20 20 20 20 21 21 21 22
34 35 37 39 40 40 41 42 43 44 45 45 44 43 43 43 43 42 41 40 39 38 36 36 35 33 32 31 29 28 27 26 26 25 25 24 24 24 25 25 25 24 24 23 23 23 23 22 22 21 21 22 22 23 22 22 21 21 21 21 21 21 21 21 20 20 20 20 19 19 19 19 20 20 20 20 20 21 21 21 21 21 21 21 21 22 23
27 31 34 36 38 39 41 41 42 42 43 44 44 44 43 43 43 43 43 42 42 41 40 38 37 36 34 32 31 30 29 28 27 26 25 25 25 24 24 24 25 25 24 24 23 23 23 22 22 22 22 22 22 23 23 23 22 22 21 21 21 21 21 21 21 21 21 21 21 21 21 20 21 21 21 22 22 22 22 22 22 22 22 22 23 23 24
16 22 27 31 34 37 38 39 40 41 41 42 43 44 43 43 43 42 42 42 42 42 42 41 40 39 37 35 33 32 31 31 29 28 27 26 25 24 23 23 24 24 24 24 23 23 23 22 22 21 22 22 22 22 23 23 23 22 22 21 21 21 22 22 22 22 22 22 22 22 22 21 21 22 22 22 22 22 22 22 23 23 23 24 24 25 25
7 13 19 24 28 32 35 36 38 39 39 41 41 42 42 42 42 42 41 41 41 41 41 41 41 39 37 36 34 33 32 32 31 29 28 27 26 25 24 23 23 24 24 24 23 23 22 22 22 21 21 21 21 22 23 23 23 23 22 22 22 22 22 22 22 22 21 21 21 22 22 22 22 22 22 22 23 23 23 24 24 25 25 25 25 25 26
6 6 11 16 21 25 29 32 34 36 37 38 39 40 40 40 40 40 40 40 40 40 40 40 40 38 36 35 33 32 32 31 30 29 28 27 26 25 25 24 24 24 23 22 22 22 22 22 22 22 21 21 21 21 22 23 23 23 22 22 22 22 22 22 22 22 22 21 21 21 21 21 22 22 22 23 23 24 24 25 25 26 26 25 25 26 26
11 6 1 6 11 16 21 24 28 31 33 35 36 37 37 38 38 39 39 39 39 39 39 39 38 37 35 33 32 31 30 30 29 27 27 27 26 25 24 23 23 23 23 21 21 21 21 21 21 21 21 21 20 21 22 22 23 23 22 22 22 22 22 22 22 22 22 22 22 21 21 21 22 22 23 23 23 23 23 24 24 24 25 25 26 26 26
14 11 7 3 2 6 11 16 21 25 28 31 33 34 35 35 36 36 36 37 37 38 38 37 36 35 33 31 30 29 28 27 27 26 25 25 25 24 23 22 22 23 23 22 21 21 21 20 19 19 20 20 19 20 20 21 22 22 22 22 23 23 22 22 22 22 22 22 22 22 22 22 22 22 23 23 23 24 24 24 24 24 24 25 26 26 26
14 12 10 7 5 2 2 7 12 17 21 25 29 30 32 33 34 34 35 34 34 34 34 34 33 32 31 29 28 27 26 24 24 24 24 24 23 22 21 21 21 21 22 22 22 21 21 20 19 18 19 19 19 19 19 19 20 21 21 21 22 23 22 22 22 22 22 22 22 23 23 23 23 23 24 24 24 25 25 25 25 25 26 26 27 27 28
17 14 12 11 8 6 3 1 4 8 12 17 21 24 27 28 30 31 32 31 31 31 32 32 31 30 29 28 27 26 25 24 22 22 22 22 21 20 19 19 20 20 19 20 20 20 19 19 18 19 19 19 18 19 19 19 19 20 20 21 21 22 22 22 23 23 23 23 23 23 24 24 24 25 25 25 26 26 26 26 27 27 27 28 28 29 29
20 17 16 14 12 9 7 6 4 2 4 8 12 17 21 23 25 26 27 29 30 31 31 32 31 29 28 27 26 24 24 23 22 21 21 20 19 19 18 17 18 18 18 18 17 16 15 16 17 17 18 18 19 19 19 19 19 19 20 20 20 21 21 22 22 22 23 24 24 24 24 25 25 26 26 26 26 27 27 27 28 28 29 29 30 30 31
20 20 18 16 14 11 10 8 7 5 4 3 5 9 13 17 19 19 20 24 27 28 29 31 31 28 26 26 26 24 23 22 22 21 21 20 19 19 18 17 17 17 17 18 18 17 16 16 16 16 16 17 18 19 19 19 19 20 20 20 20 20 21 21 22 22 23 23 24 24 24 25 25 25 26 26 26 27 27 27 28 29 29 30 30 31 31
19 20 20 19 17 15 13 10 9 8 7 6 6 6 8 11 14 15 15 18 21 23 25 27 28 26 25 25 25 25 23 21 20 20 20 20 20 20 19 18 18 18 18 18 19 19 18 18 18 18 17 17 18 18 19 19 20 21 21 21 21 21 21 21 22 22 23 23 24 24 25 25 25 25 25 26 26 26 27 27 27 27 28 28 29 29 30
18 18 19 19 19 18 16 14 12 11 9 8 7 7 8 10 12 14 15 16 18 20 22 23 24 23 23 24 24 23 22 21 20 19 19 19 19 19 19 19 19 19 18 18 19 19 19 19 19 19 19 19 19 19 19 20 21 21 21 21 21 21 21 21 22 22 22 23 23 23 23 24 24 25 25 25 25 26 26 26 26 26 26 27 27 27 28
17 17 17 17 17 17 17 16 15 13 12 11 9 7 7 9 11 13 15 16 17 18 20 21 21 20 20 21 21 21 20 19 19 19 19 19 19 19 19 19 19 18 17 17 18 18 18 19 19 19 18 19 19 19 20 21 21 21 21 21 21 21 21 21 21 21 21 22 22 22 22 22 22 22 23 23 24 24 24 24 25 25 26 26 26 26 26
15 15 15 15 15 15 15 15 15 14 13 13 11 10 9 9 10 12 14 15 16 17 18 19 19 18 18 17 17 18 18 18 18 19 19 18 18 18 18 18 18 17 16 17 17 17 18 19 19 19 18 18 18 19 19 20 20 20 20 21 21 21 21 20 20 21 21 21 21 21 21 21 21 21 21 22 22 22 23 23 24 25 25 26 26 26 26
14 14 14 14 14 13 13 14 14 13 13 12 12 12 12 11 10 11 13 14 15 15 16 17 17 17 16 16 16 16 16 16 16 17 17 16 17 17 17 17 17 17 16 16 17 17 17 17 18 18 18 18 18 18 19 19 19 19 20 20 20 20 20 20 20 21 21 21 21 22 22 22 22 22 22 22 23 23 23 24 25 25 25 25 26 26 26
12 12 12 12 12 12 12 12 12 13 12 12 11 11 11 11 11 11 12 13 14 14 15 16 16 16 15 16 16 15 15 15 15 16 15 16 16 17 17 17 16 15 15 15 15 16 16 16 17 17 17 17 17 18 18 18 18 19 19 19 20 20 21 21 21 22 22 22 22 23 23 23 24 24 25 25 25 25 25 25 25 26 26 26 25 25 25
10 10 10 10 10 10 10 10 10 11 11 11 10 10 9 10 10 10 11 12 12 13 13 14 14 14 14 14 14 14 15 15 15 15 15 16 16 17 17 17 17 16 15 15 15 15 15 16 16 17 17 17 17 17 17 17 18 18 18 18 19 20 20 20 21 21 21 22 22 22 23 23 24 24 24 25 25 26 26 26 26 26 26 26 25 25 25
9 9 9 8 9 9 8 8 8 8 9 9 9 9 9 9 9 9 10 10 11 12 12 12 12 12 11 12 12 12 13 14 14 15 15 15 16 17 17 17 17 17 16 16 15 15 14 14 15 15 15 15 16 16 16 16 16 16 16 16 17 17 18 18 19 19 19 20 20 21 21 21 22 22 22 22 23 23 24 24 25 25 25 25 25 24 24
9 8 8 7 7 7 7 7 7 7 7 7 7 7 7 7 7 7 8 8 9 10 10 10 10 10 10 10 11 11 11 11 12 14 14 14 14 14 15 15 15 15 16 16 15 14 13 13 13 12 13 13 13 14 14 15 15 15 15 15 15 15 16 16 17 17 17 18 18 19 19 19 20 20 21 21 21 21 21 21 22 22 23 23 23 23 23
9 8 7 7 5 5 5 5 5 5 5 5 5 5 5 4 4 4 5 6 6 7 8 8 8 8 8 8 9 9 9 9 10 11 11 11 12 12 12 13 13 14 14 14 14 13 12 11 11 10 11 11 12 12 13 13 14 14 14 13 14 14 14 15 15 15 16 16 16 17 17 18 18 19 19 20 20 20 20 20 20 21 21 22 22 22 22
9 8 8 7 6 5 4 4 4 4 3 2 3 3 3 3 2 2 2 3 4 5 6 6 7 7 8 8 8 8 8 8 9 9 9 10 10 10 11 11 12 12 12 12 13 13 12 12 11 10 10 11 11 11 11 12 12 12 13 13 13 13 13 14 14 14 15 15 15 15 16 16 17 17 18 18 19 19 19 20 20 21 21 21 22 22 22
9 9 8 8 7 5 5 4 4 3 3 2 2 1 1 1 1 0 1 2 3 3 4 4 5 5 6 7 7 7 7 8 8 8 8 8 9 9 9 9 10 10 11 11 11 12 12 11 11 11 11 11 11 11 11 11 11 12 12 13 13 13 13 13 14 14 14 15 15 16 16 17 17 17 17 18 18 18 19 19 20 20 20 20 21 22 22
Wind_Direction
215 216 215 214 209 204 202 205 210 208 206 209 211 207 205 204 204 210 208 199 200 208 210 216 218 208 198 196 193 189 180 174 181 188 187 186 189 190 188 187 188 191 195 197 198 200 203 202 203 205 204 204 204 204 205 205 206 207 207 207 209 210 211 213 215 216 218 220 221 222 222 223 223 224 224 225 226 227 228 229 231 232 232 233 235 236 237
213 211 207 207 209 204 201 204 208 209 206 207 210 210 205 203 205 208 204 199 204 210 211 213 206 193 191 193 187 178 171 168 170 174 176 179 183 184 185 187 189 192 195 198 200 202 203 203 203 204 204 204 203 203 204 204 205 207 207 208 210 212 213 214 216 217 219 221 222 222 222 223 223 224 225 225 226 227 228 229 230 230 230 231 232 233 235
206 205 203 208 213 209 203 202 204 208 208 205 207 209 207 202 204 206 201 200 207 208 198 192 184 177 181 186 179 170 164 162 164 168 172 176 179 182 185 188 190 193 197 201 203 204 204 205 204 205 204 204 204 204 205 206 206 207 208 209 211 213 214 216 217 219 221 222 224 224 223 223 224 224 225 225 226 227 228 228 228 228 229 230 231 232 234
203 201 201 211 220 215 209 206 203 203 207 207 205 206 208 204 200 200 196 194 196 190 180 176 170 165 171 177 172 162 156 156 162 168 173 176 179 183 187 190 193 197 201 203 205 206 207 207 206 206 206 205 205 206 207 208 208 209 210 211 212 214 215 216 218 220 222 223 224 225 225 224 224 224 225 225 226 226 227 227 227 228 229 229 230 232 234
205 201 202 213 221 214 209 208 200 195 203 210 205 202 206 205 199 198 195 192 189 182 177 176 171 165 168 175 171 162 154 149 153 163 169 172 176 182 187 191 195 199 202 205 207 209 210 208 207 208 207 206 207 208 209 210 210 211 213 214 214 215 216 217 218 220 222 223 224 225 226 226 225 225 225 225 226 226 227 227 227 228 229 230 231 233 236
207 205 205 211 212 206 204 202 194 189 198 213 206 200 202 204 201 199 195 193 193 190 185 183 181 178 178 178 173 166 161 157 154 158 165 169 173 181 185 189 194 198 202 205 206 207 207 207 208 209 209 209 210 210 211 212 212 213 215 216 218 218 218 218 219 221 222 224 225 226 227 227 227 226 226 226 226 227 227 228 228 229 230 232 234 236 238
207 206 203 203 205 205 201 194 189 187 195 208 200 193 196 204 210 206 197 191 190 191 191 189 185 181 178 177 175 170 166 162 156 153 161 169 175 181 183 187 192 195 196 197 198 198 199 203 207 208 210 211 212 213 213 213 215 216 217 219 220 220 220 220 220 221 223 225 227 228 228 227 227 227 227 227 227 228 229 229 230 231 233 235 237 239 241
202 201 200 200 205 205 197 188 187 192 201 201 187 180 186 199 210 209 200 191 184 185 189 188 183 178 174 174 174 168 166 166 161 157 161 166 171 175 176 180 186 190 191 193 195 195 197 201 205 207 210 211 212 214 215 216 218 219 219 221 221 221 222 222 222 222 223 225 227 228 228 228 228 228 228 229 229 229 230 231 233 234 235 237 239 241 242
199 202 204 203 203 199 192 191 197 201 203 197 185 179 185 197 202 203 198 191 186 185 187 186 183 180 177 180 182 177 176 177 175 173 172 173 176 177 175 176 180 184 189 193 197 200 201 203 205 207 210 212 212 215 216 218 220 221 221 223 223 223 224 224 223 223 224 226 228 229 229 228 228 229 229 230 230 231 231 233 234 235 236 238 239 241 242
202 204 203 201 200 196 194 202 208 207 205 197 183 174 177 194 199 193 190 190 188 188 189 188 186 184 183 188 193 190 186 186 185 184 184 186 190 190 187 186 186 187 189 193 199 204 208 211 212 212 214 215 215 216 217 219 221 223 225 225 226 226 226 225 225 225 226 227 229 229 229 229 229 229 230 231 232 232 233 234 235 236 237 238 239 241 241
206 203 199 199 198 197 201 208 209 210 212 201 183 168 168 188 195 185 178 180 183 188 190 190 190 190 191 196 199 197 193 192 192 192 194 198 200 202 201 198 199 202 202 203 207 209 211 217 222 223 222 222 221 220 220 220 220 223 226 227 228 228 227 226 226 227 227 228 230 229 229 229 230 229 230 231 231 232 233 233 234 235 236 238 239 240 241
205 202 200 199 195 195 206 212 211 216 216 200 182 172 175 187 189 181 176 177 181 186 188 188 191 195 196 198 199 198 197 198 197 198 201 205 207 211 214 213 215 218 217 217 218 218 218 222 227 229 229 228 228 226 225 223 222 224 225 227 228 229 228 227 226 227 228 228 229 229 228 228 229 228 228 228 229 230 231 232 233 235 236 238 239 241 242
204 202 201 201 196 194 206 213 212 215 210 193 179 179 186 188 186 180 178 180 186 190 190 190 193 195 196 197 195 195 197 201 203 205 208 212 214 216 220 222 225 226 225 225 224 224 226 228 230 232 232 231 232 232 230 228 226 227 228 227 227 227 228 227 226 227 228 228 229 229 228 226 227 227 227 227 227 228 230 231 233 235 236 238 240 242 244
205 202 202 202 199 200 209 214 210 204 196 187 184 188 190 189 187 186 184 185 189 192 192 192 195 197 199 199 195 195 198 202 206 211 215 218 220 223 225 226 228 229 227 227 227 227 229 230 230 231 231 232 234 235 234 232 230 230 230 227 225 225 226 226 226 226 227 228 228 228 227 225 225 226 227 228 228 229 230 232 234 235 237 239 242 244 247
204 203 203 201 201 207 215 211 202 195 190 189 193 194 190 187 188 191 193 194 194 195 195 196 199 201 203 203 201 202 203 205 210 216 219 222 226 229 230 230 232 232 231 231 231 232 233 233 232 231 231 233 236 236 236 236 235 234 232 229 225 224 224 224 224 225 227 228 228 228 227 225 224 225 227 229 230 231 232 233 235 237 239 241 244 246 249
200 201 202 201 201 208 210 201 195 195 192 191 195 195 191 191 192 196 199 200 200 199 198 198 202 204 204 204 205 207 207 208 213 218 221 225 230 232 233 234 235 235 235 235 235 235 236 235 234 234 234 234 235 235 237 240 239 237 236 233 228 225 225 225 225 226 228 229 229 229 228 227 226 226 228 230 232 233 234 235 237 239 241 244 246 249 251
200 199 202 204 205 208 207 201 200 203 199 195 194 195 195 195 196 199 203 205 206 205 203 202 204 206 207 208 209 211 213 215 219 225 229 233 237 238 237 237 238 237 237 238 238 236 236 236 236 237 237 235 235 236 238 240 241 240 240 237 231 228 227 227 227 228 229 230 230 230 229 229 229 229 230 231 233 235 237 238 240 241 244 246 248 250 252
205 203 203 206 210 211 210 208 208 210 208 204 200 199 200 202 202 204 207 209 210 210 209 209 209 210 212 214 217 220 223 226 229 234 238 241 243 242 240 238 239 240 240 240 238 236 237 237 238 239 239 238 237 238 239 240 241 241 241 238 234 230 229 229 229 228 228 229 230 230 230 231 232 233 233 234 236 238 239 241 242 244 246 248 249 251 253
208 206 205 208 213 214 215 215 214 212 211 210 208 205 205 205 206 207 210 212 213 214 214 216 216 216 217 220 225 228 231 234 237 239 241 242 243 243 242 240 240 242 243 242 239 238 239 239 239 240 240 240 239 239 240 240 240 240 240 239 235 231 230 230 230 229 229 229 230 231 232 233 234 236 237 237 238 240 241 242 244 246 247 249 250 252 253
212 210 209 211 216 217 217 219 218 214 211 212 212 211 209 209 211 212 214 215 217 218 219 219 219 220 222 226 229 232 233 235 238 240 241 241 241 243 243 242 241 242 244 243 241 240 240 240 240 241 241 241 242 241 240 240 239 238 239 239 236 232 230 230 229 229 229 230 231 233 235 236 237 238 239 240 240 241 242 244 245 246 248 250 251 253 255
214 212 212 213 215 214 213 215 218 216 214 214 214 214 214 215 216 218 220 221 222 222 223 223 223 225 228 230 232 233 234 235 236 238 238 237 238 239 241 241 240 240 241 241 241 240 240 240 241 242 242 243 243 242 241 240 240 238 237 238 237 235 233 232 231 230 231 232 233 235 236 238 239 240 242 243 243 244 245 246 246 248 249 252 254 256 258
215 214 214 214 213 213 214 218 219 217 216 215 214 215 217 217 217 221 225 227 227 226 226 226 227 229 232 234 234 235 235 234 234 235 235 235 235 236 237 238 238 238 239 240 241 241 241 241 242 242 244 244 244 243 242 241 241 240 238 238 238 238 237 237 235 233 233 234 235 235 236 237 238 241 243 245 246 247 248 248 249 250 251 253 255 257 259
222 221 222 219 215 216 221 226 224 220 219 218 217 217 218 218 218 221 226 229 231 231 231 231 231 232 235 236 236 236 235 234 234 234 234 235 235 236 236 237 238 239 240 241 242 243 243 243 243 243 244 244 244 244 244 242 241 241 239 237 238 238 239 239 237 236 236 236 236 236 237 238 239 240 242 244 247 250 251 250 250 251 252 254 256 257 258
230 228 229 227 223 222 226 229 227 225 223 222 222 221 221 220 220 221 224 227 230 232 233 234 233 234 235 236 236 236 235 235 235 235 235 235 236 236 237 237 238 240 242 243 244 244 243 243 243 244 245 245 244 243 244 243 241 240 238 236 236 237 238 238 237 237 237 237 236 237 239 239 238 239 239 241 245 249 251 251 250 251 252 254 256 258 259
236 234 233 232 230 228 228 229 229 228 227 226 225 224 223 224 224 223 224 226 228 230 232 233 234 234 235 235 235 235 235 235 236 236 236 236 235 235 236 238 239 240 242 244 245 245 244 244 244 244 246 247 243 242 243 243 242 241 238 236 236 237 238 238 237 237 237 236 235 237 239 239 238 239 239 239 241 243 246 248 250 252 253 255 256 258 260
240 239 238 236 234 232 230 230 229 229 229 228 228 227 226 226 227 227 227 227 228 230 231 233 234 234 235 235 235 235 235 237 238 238 238 238 237 236 236 238 240 241 243 245 246 246 246 246 245 245 247 247 244 242 242 242 241 240 238 236 236 237 238 238 238 238 239 237 236 237 238 238 238 238 239 239 239 240 242 246 249 252 255 258 259 260 262
243 241 239 237 234 232 230 229 229 230 230 230 230 231 230 230 229 229 230 230 231 232 234 235 236 236 236 236 237 238 239 240 240 240 240 241 241 241 240 240 241 243 244 245 246 246 247 247 247 246 246 245 244 243 242 241 240 239 238 237 236 236 237 238 238 240 241 240 238 237 237 237 237 238 238 239 240 241 243 246 249 252 255 258 261 263 264
244 241 238 235 233 232 231 230 231 231 231 231 232 232 233 233 232 232 232 232 233 233 235 237 238 238 237 238 239 240 241 242 242 241 242 244 245 244 243 242 243 244 245 246 246 247 247 247 248 247 246 244 244 243 242 240 239 239 238 237 237 237 238 239 239 240 241 241 239 238 237 237 237 238 238 240 241 243 246 247 249 252 255 258 261 264 266
245 242 239 236 234 233 233 232 232 233 233 233 234 233 234 234 234 234 234 234 234 234 235 237 238 239 238 239 241 241 241 241 241 241 242 244 245 245 243 243 243 244 245 246 247 247 247 247 248 249 249 247 245 244 243 240 238 238 238 238 238 238 239 239 240 240 239 239 238 237 237 238 237 237 239 241 243 245 247 249 251 253 257 260 263 266 268
245 242 238 236 234 233 232 232 232 232 233 233 234 234 234 234 234 234 234 234 234 235 236 237 238 238 238 239 240 239 239 239 240 240 242 244 245 245 245 244 243 243 244 246 247 247 247 247 248 250 251 249 246 245 243 240 239 239 239 239 239 240 240 240 240 240 239 238 237 237 238 238 239 239 241 243 246 248 249 251 253 255 259 263 266 268 270
246 240 236 234 233 232 232 232 232 232 232 232 232 233 234 234 235 235 235 235 235 235 236 237 237 236 237 238 239 239 239 239 240 241 243 245 246 246 245 244 243 242 242 244 245 246 246 247 248 250 250 249 247 245 242 240 239 239 239 239 239 240 241 241 241 240 240 239 239 239 240 241 242 242 244 246 249 251 252 253 255 258 261 264 267 269 271
246 236 233 232 232 231 231 232 232 232 232 231 231 231 232 233 234 235 236 236 236 235 236 237 236 235 236 238 239 240 240 241 241 243 244 244 244 244 243 243 244 244 242 241 243 245 245 247 249 250 249 247 245 244 242 240 239 239 239 239 239 239 239 240 240 241 241 241 241 241 242 243 244 246 247 249 250 252 253 255 257 259 262 265 267 269 272
263 235 228 228 229 229 230 230 230 231 231 230 231 231 231 232 232 233 234 236 236 236 236 236 235 234 235 237 239 240 241 240 239 240 241 240 240 240 240 241 244 245 243 241 242 244 246 247 248 248 247 245 244 242 241 240 239 238 238 239 239 239 239 240 240 241 241 241 243 244 245 246 247 249 250 251 252 253 255 256 257 259 262 265 267 270 273
335 257 230 225 225 227 228 229 229 228 229 229 230 231 232 232 232 232 233 234 235 235 235 234 233 232 233 235 236 238 238 236 236 237 238 238 238 238 238 239 242 244 244 242 242 243 245 246 245 245 245 244 242 241 240 239 237 237 238 240 240 240 240 240 241 242 242 243 244 245 246 248 250 251 253 254 255 257 259 260 262 263 264 265 268 272 275
14 13 269 225 225 229 232 232 229 227 227 227 228 229 231 232 233 233 233 233 234 234 233 231 230 230 230 231 233 234 233 232 232 234 236 237 237 237 237 238 241 243 242 242 243 244 245 245 244 244 243 243 242 242 241 239 237 237 239 239 239 239 240 240 241 242 243 245 245 246 247 249 251 253 255 257 259 261 263 265 267 268 267 268 271 274 276
23 29 36 40 226 230 233 233 232 230 228 227 228 228 229 230 230 230 230 232 232 231 230 228 227 226 226 227 227 228 228 228 228 229 232 233 234 234 234 235 240 243 243 243 245 246 245 244 242 241 240 240 241 241 242 241 239 239 240 240 240 241 241 242 243 244 245 246 247 248 250 252 253 255 257 258 260 263 264 266 268 269 269 270 273 274 275
29 30 30 30 33 33 228 226 227 228 229 228 228 228 227 227 226 226 227 228 228 226 224 223 221 221 221 221 220 220 222 223 224 225 227 229 230 231 231 232 236 239 240 241 243 244 243 242 239 237 236 237 239 240 242 242 241 241 241 241 241 242 243 245 246 247 248 249 250 251 253 254 256 257 259 260 261 263 265 266 269 270 271 272 274 274 275
36 36 33 30 30 33 39 97 202 215 222 224 226 226 225 225 225 223 222 222 222 219 216 214 213 212 212 212 213 214 216 218 218 219 220 221 223 226 228 229 230 232 234 237 239 240 239 238 236 235 235 237 239 240 241 242 242 242 242 242 242 243 244 246 247 249 250 251 252 254 255 256 257 258 260 261 262 264 266 267 269 271 272 273 274 275 276
38 39 37 33 34 38 44 53 69 139 202 211 216 220 220 219 220 219 217 215 215 213 209 206 205 205 206 207 208 210 212 213 214 215 215 215 217 218 221 224 225 226 228 230 231 232 232 234 234 235 236 238 239 240 241 242 242 243 243 244 244 245 246 247 249 251 252 253 254 255 256 257 258 259 260 262 263 265 267 269 271 272 273 274 275 276 277
37 39 40 40 42 44 46 50 53 58 80 137 177 200 207 207 206 208 210 210 209 207 203 200 200 202 204 204 204 206 209 210 212 214 215 215 215 216 217 221 225 226 226 227 229 232 236 239 239 239 240 240 241 241 242 242 242 243 244 245 246 246 248 249 251 252 253 254 255 256 257 258 259 260 261 263 264 266 268 270 272 273 274 275 276 277 278
36 38 41 45 49 52 54 55 55 55 62 83 111 137 162 177 184 189 194 196 197 199 199 197 197 199 201 201 202 205 208 210 212 214 216 216 217 219 221 226 230 231 230 230 233 236 239 242 243 243 243 243 243 243 243 243 243 244 246 247 248 248 249 250 251 252 253 254 256 257 258 259 260 261 262 264 265 267 269 270 272 273 274 275 277 278 279
37 38 40 44 49 53 57 59 60 62 65 72 87 106 124 142 157 167 173 177 184 190 193 191 189 192 197 199 200 203 206 209 212 215 216 218 220 221 223 227 232 234 234 235 236 237 239 241 242 243 244 244 244 245 244 243 243 244 245 247 248 249 250 250 251 252 253 254 255 257 258 259 260 261 263 264 266 267 268 269 271 272 274 276 278 280 281
37 38 40 43 46 49 53 56 59 65 71 76 81 93 111 129 145 157 165 171 177 183 186 186 186 191 196 199 201 204 208 211 213 215 216 218 220 222 224 227 232 235 236 237 238 240 242 243 243 244 245 245 246 246 245 244 244 244 245 246 247 248 249 250 251 251 252 253 255 256 257 258 259 261 262 264 265 266 267 269 271 273 275 277 279 280 282
34 36 38 41 44 46 50 54 57 63 69 75 81 89 100 115 135 151 162 170 175 179 182 184 186 190 195 198 202 207 211 213 215 216 216 217 219 222 225 228 232 236 239 240 241 243 245 245 245 245 246 247 248 247 246 245 245 245 245 246 247 247 249 250 251 252 253 254 255 256 257 258 259 260 262 263 264 266 268 270 272 274 276 278 279 281 282
31 34 37 40 42 45 49 54 58 63 68 74 81 88 95 104 119 138 154 164 170 176 180 181 181 185 190 195 198 203 207 210 213 214 215 216 220 224 227 230 232 236 240 241 242 242 243 244 245 245 245 246 246 246 245 245 245 245 245 246 247 248 249 251 252 253 254 256 257 258 259 260 261 262 263 264 265 267 269 271 273 275 277 278 279 280 281
29 31 34 38 41 45 50 54 56 60 67 75 82 90 95 100 108 123 139 150 156 162 169 174 178 182 188 193 196 200 204 207 209 212 214 216 220 224 227 230 232 236 238 239 240 241 241 243 244 245 244 244 245 245 245 245 246 247 248 249 250 251 252 253 254 256 257 258 258 259 261 262 264 265 265 266 267 268 270 272 273 275 277 277 278 279 280
25 28 29 32 36 42 49 54 55 55 60 69 80 89 97 102 108 117 130 144 152 156 160 167 174 180 187 192 197 201 205 208 210 214 217 220 223 226 227 229 232 235 237 238 239 241 242 242 243 244 243 243 243 243 244 245 246 247 248 250 251 252 253 255 256 257 258 259 260 261 263 264 266 267 268 269 269 270 271 272 273 274 275 276 277 278 279
14 21 24 27 31 36 41 48 52 53 56 62 72 83 92 102 111 118 125 138 152 159 163 167 173 179 184 189 194 199 203 208 214 218 222 224 225 226 228 230 233 236 239 240 242 243 245 245 245 244 244 243 242 243 244 246 247 248 250 252 253 255 255 256 257 257 258 260 262 264 265 266 267 268 269 270 270 271 272 272 273 273 274 275 276 277 278
359 6 11 16 23 29 33 38 43 48 54 60 68 77 87 97 107 118 125 133 145 156 163 169 174 179 182 186 191 196 203 210 215 217 219 222 223 224 226 229 232 235 237 238 240 241 244 245 245 244 243 243 244 246 247 248 248 248 250 252 254 255 255 256 257 258 260 262 265 266 266 267 268 269 269 270 270 271 272 273 275 276 277 278 279 280 281
345 348 352 356 4 12 16 22 30 38 47 57 65 72 79 85 94 112 127 135 143 153 163 171 177 182 186 190 194 200 205 210 212 213 214 216 219 221 224 226 228 229 232 233 233 234 238 242 243 241 240 239 240 243 244 245 245 247 250 253 255 256 257 258 260 261 263 265 267 269 269 269 270 271 272 272 273 273 274 275 277 279 280 281 282 282 282
335 335 337 338 341 347 349 351 359 8 17 33 53 63 65 66 75 110 138 144 147 156 166 175 183 190 193 196 198 203 207 210 212 213 214 215 217 220 223 224 225 226 228 229 230 232 235 239 241 241 239 238 239 240 242 244 246 250 252 254 256 258 260 263 264 266 266 267 268 270 272 273 273 274 275 276 275 276 277 278 279 279 280 280 281 281 282
331 329 330 329 325 324 326 325 327 334 338 332 323 333 11 38 46 113 194 193 190 187 183 183 188 196 201 202 206 210 214 215 216 217 219 221 222 224 227 229 230 230 230 231 232 234 236 239 242 243 243 243 245 248 250 252 253 255 255 255 256 259 262 265 267 269 270 270 271 273 274 275 275 276 277 278 277 278 279 280 281 281 281 282 282 283 284